Regional Weather Roundup
Issued by NWS Bismarck, ND

Home | Current Version | Previous Version | Text Only | Print | Product List | Glossary On
Versions: 1 2 3 4 5 6 7 8 9 10 11 12 13 14 15 16 17 18 19 20 21 22 23 24 25 26 27 28 29 30 31 32 33 34 35 36 37 38 39 40 41 42 43 44 45 46 47 48 49 50
000
ASUS43 KBIS 230759
RWRBIS

NWR BROADCAST TEXT
NATIONAL WEATHER SERVICE BISMARCK ND
300 AM CDT THU OCT 23 2014

NOTE: "FAIR" INDICATES FEW OR NO CLOUDS BELOW 12,000 FEET WITH NO
SIGNIFICANT WEATHER AND/OR OBSTRUCTIONS TO VISIBILITY.


CITY           SKY/WX    TMP DP  RH WIND       PRES   REMARKS
WILLISTON      CLEAR     39  32  76 SW8       29.87R
MINOT          CLEAR     47  34  60 SW13      29.83S
MINOT AFB      NOT AVBL
BISMARCK       CLEAR     40  33  76 W5        29.92S
DICKINSON      NOT AVBL
GARRISON         N/A     41  38  89 W5        29.87S
HETTINGER ARPT CLEAR     40  26  57 S3        29.95F
JAMESTOWN      NOT AVBL
CARRINGTON     FAIR      46  41  81 W9        29.88S
$$

CITY           SKY/WX    TMP DP  RH WIND       PRES   REMARKS
GRAND FORKS    CLOUDY    48  45  89 SW8       29.84S
GRAND FORKS AF NOT AVBL
DEVILS LAKE    PTCLDY    54  41  62 SW13      29.82S
FARGO          CLEAR     47  45  93 SW7       29.89S
GWINNER        SUNNY     45  45 100 SW9       29.93S
$$

CITY           SKY/WX    TMP DP  RH WIND       PRES   REMARKS
ABERDEEN       CLEAR     38  36  92 SW5       29.95S
MOBRIDGE       CLEAR     41  36  82 E5        29.94S
RAPID CITY     CLEAR     42  33  70 NW8       30.02S
GLASGOW        CLEAR     38  31  76 SE8       29.82F
SIDNEY         CLEAR     34  30  86 S6        29.90R
WOLF POINT     CLEAR     30  27  88 CALM      29.86F
GLENDIVE       CLEAR     36  28  75 S3        29.90S
MILES CITY     CLEAR     37  27  67 SE9       29.92R
BAKER          CLEAR     38  28  67 VRB6      29.92F
$$

CITY           SKY/WX    TMP DP  RH WIND       PRES   REMARKS
BILLINGS       CLEAR     50  22  33 SW9       29.93F
GREAT FALLS    PTCLDY    50  31  48 SW13      29.81F
$$




USA.gov is the U.S. government's official web portal to all federal, state and local government web resources and services.